Location: Innsbruck
(47.2657°N, 11.3914°E)
Time: 05:35:21
(UTC+01:00)

Envisat - Visible Passes

Search period start: 03 February 2023 00:00
Search period end: 13 February 2023 00:00
Orbit: 763 x 765 km, 98.2° (Epoch: 02 February)

Date Brightness Start Highest point End Pass type
(mag) Time Alt. Az. Time Alt. Az. Time Alt. Az.
03 Feb 5.8 03:25:34 10° NE 03:26:16 13° NE 03:26:16 13° NE visible
03 Feb 4.3 05:04:02 10° N 05:06:27 27° N 05:06:27 27° N visible
04 Feb 4.6 04:26:51 10° NNE 04:29:07 27° NNE 04:29:07 27° NNE visible
04 Feb 4.7 06:07:14 10° NNW 06:09:19 16° NW 06:09:19 16° NW visible
05 Feb 5.2 03:50:03 10° NNE 03:51:47 20° NE 03:51:47 20° NE visible
05 Feb 4.2 05:29:17 10° N 05:31:59 25° NNW 05:31:59 25° NNW visible
06 Feb 5.9 03:13:52 10° NE 03:14:27 12° NE 03:14:27 12° NE visible
06 Feb 4.1 04:51:52 10° N 04:54:39 32° N 04:54:39 32° N visible
06 Feb 4.9 06:34:02 10° NW 06:34:50 10° NW 06:34:50 10° NW visible
07 Feb 4.6 04:14:48 10° NNE 04:17:20 29° NNE 04:17:20 29° NNE visible
07 Feb 4.4 05:54:46 10° NNW 05:57:31 19° NW 05:57:31 19° NW visible
08 Feb 5.3 03:38:09 10° NNE 03:40:00 20° NE 03:40:00 20° NE visible
08 Feb 4.0 05:17:02 10° N 05:20:11 31° NNW 05:20:11 31° NNW visible
09 Feb 6.0 03:02:20 10° NE 03:02:41 11° ENE 03:02:41 11° ENE visible
09 Feb 3.9 04:39:44 10° N 04:42:52 38° N 04:42:52 38° N visible
09 Feb 4.7 06:20:45 10° NNW 06:22:59 13° NW 06:23:03 13° NW visible
10 Feb 4.6 04:02:47 10° NNE 04:05:32 30° NE 04:05:32 30° NE visible
10 Feb 4.2 05:42:24 10° N 05:45:44 24° NW 05:45:44 24° NW visible
11 Feb 5.4 03:26:18 10° NE 03:28:13 19° NE 03:28:13 19° NE visible
11 Feb 3.7 05:04:49 10° N 05:08:25 39° NNW 05:08:25 39° NNW visible
12 Feb 3.8 04:27:38 10° NNE 04:31:05 44° NNE 04:31:05 44° NNE visible
12 Feb 4.5 06:08:05 10° NNW 06:11:05 16° WNW 06:11:17 16° WNW visible
